Location: Canazei
(46.4667°N, 11.7667°E)
Time: 03:37:50
(UTC+00:00)

Cosmos 1727 Rocket - Pass Details

Date: 21 April 2021
Orbit: 962 x 995 km, 82.9° (Epoch: 10 May)

Event Time Altitude Azimuth Distance (km) Brightness Sun altitude
Exits shadow 03:00:43 - 191° (S) 3,342 6.4 -12.4°
Reaches altitude 10° 03:02:24 10° 192° (SSW) 2,709 5.9 -12.2°
Maximum altitude 03:08:36 79° 278° (W) 1,001 4.0 -11.3°
Drops below altitude 10° 03:14:56 10° 7° (N) 2,751 6.9 -10.3°
Sets 03:17:29 0° 8° (N) 3,708 7.6 -9.9°
